This demonstration page uses our WeatherBlox Daily Observations layout. Learn more.

Left ArrowRight Arrow

53.62937, 11.41316

Hourly Observations for December 3, 2018

Temp ( °F °C ) Dew Point ( °F °C ) Humidity (%) Winds ( mph kmh ) Pressure ( in mb ) Visibility ( mi km ) Precip ( " mm )
6:50 am 06:50 Mostly Cloudy 52 11 52 11 100 100 S 9 15 29.38 995 30 48 N/A
7:20 am 07:20 Mostly Cloudy 52 11 52 11 100 100 S 9 15 29.38 995 30 48 N/A
7:50 am 07:50 Mostly Cloudy 52 11 50 10 94 94 S 9 15 29.38 995 30 48 N/A
8:20 am 08:20 Mostly Cloudy with Light Showers 52 11 52 11 100 100 S 9 15 29.38 995 3 4 N/A
8:50 am 08:50 Mostly Cloudy with Light Showers 52 11 52 11 100 100 S 9 15 29.38 995 3 4 N/A
9:20 am 09:20 Mostly Cloudy 52 11 52 11 100 100 SSW 15 24 29.38 995 30 48 N/A
9:50 am 09:50 Partly Cloudy 54 12 50 10 88 88 SSW 12 19 29.38 995 30 48 N/A
10:20 am 10:20 Partly Cloudy 54 12 50 10 88 88 SSW 12 19 29.38 995 30 48 N/A
10:50 am 10:50 Mostly Cloudy with Showers Nearby 54 12 50 10 88 88 SSW 13 20 29.41 996 30 48 N/A
11:20 am 11:20 Partly Cloudy 54 12 50 10 88 88 SSW 13 20 29.41 996 30 48 N/A
11:50 am 11:50 Mostly Cloudy with Showers Nearby 54 12 50 10 88 88 SSW 14 22 29.41 996 30 48 N/A
12:20 pm 12:20 Partly Cloudy with Light Showers 55 13 48 9 77 77 SSW 13 20 29.41 996 30 48 N/A
12:50 pm 12:50 Partly Cloudy with Showers Nearby 54 12 50 10 88 88 SW 16 26 29.41 996 30 48 N/A
1:20 pm 13:20 Mostly Cloudy 54 12 48 9 82 82 SW 14 22 29.41 996 30 48 N/A
1:50 pm 13:50 Mostly Cloudy 54 12 48 9 82 82 SSW 15 24 29.41 996 30 48 N/A
2:20 pm 14:20 Mostly Cloudy 54 12 48 9 82 82 SSW 17 28 29.41 996 30 48 N/A
2:50 pm 14:50 Mostly Cloudy 54 12 48 9 82 82 SSW 14 22 29.41 996 30 48 N/A
3:20 pm 15:20 Mostly Cloudy 54 12 48 9 82 82 SSW 14 22 29.41 996 30 48 N/A
3:50 pm 15:50 Mostly Cloudy with Light Rain 52 11 48 9 88 88 S 9 15 29.41 996 30 48 N/A
4:20 pm 16:20 Partly Cloudy 52 11 46 8 82 82 S 9 15 29.41 996 30 48 N/A
4:50 pm 16:50 Partly Cloudy 52 11 46 8 82 82 S 10 17 29.41 996 30 48 N/A
5:20 pm 17:20 Partly Cloudy 50 10 46 8 88 88 SSW 10 17 29.41 996 30 48 N/A
5:50 pm 17:50 Partly Cloudy 52 11 46 8 82 82 S 7 11 29.41 996 30 48 N/A
6:20 pm 18:20 Mostly Cloudy 52 11 46 8 82 82 S 9 15 29.41 996 30 48 N/A
6:50 pm 18:50 Mostly Cloudy 52 11 46 8 82 82 S 9 15 29.44 997 30 48 N/A

Powered by AerisWeather